N5ZPR Weather Reports


time (UTC)temp
F
wind
direction
speed
knots
gust
knots
rain 1hr
in
rain 24hr
in
rain mn
in
humidity
%
barometer
mb
20260506163004 54 14 7.8 13.9 0.00 0.12 0.12 89 1012.1
20260506162004 54 1 7.8 13.0 0.00 0.12 0.12 90 1012.1
20260506161003 55 17 6.1 10.4 0.01 0.12 0.12 90 1012.1
20260506160003 54 30 7.8 10.4 0.02 0.12 0.12 91 1012.1
20260506155004 54 342 6.1 8.7 0.12 0.12 0.12 91 1012.1
20260506154004 53 332 3.5 10.4 0.12 0.12 0.12 91 1013.7
20260506153003 53 26 7.0 11.3 0.12 0.12 0.12 91 1013.7
20260506152003 53 324 5.2 11.3 0.12 0.12 0.12 91 1013.7
20260506151003 53 299 2.6 11.3 0.11 0.11 0.11 89 1013.7
20260506150003 53 3 7.8 10.4 0.10 0.10 0.10 86 1013.7
20260506145003 54 344 4.3 7.8 0.00 0.00 0.00 85 1012.2
20260506144004 54 334 3.5 7.8 0.00 0.00 0.00 84 1012.2
20260506143003 53 207 1.7 18.2 0.00 0.00 0.00 84 1012.2
20260506142004 54 358 7.0 13.0 0.00 0.00 0.00 84 1012.2
20260506141003 54 347 5.2 13.9 0.00 0.00 0.00 84 1012.2
20260506140004 54 339 7.8 10.4 0.00 0.00 0.00 83 1012.2
20260506135003 54 344 5.2 10.4 0.00 0.00 0.00 82 1010.0
20260506134004 54 354 7.0 10.4 0.00 0.00 0.00 82 1010.0
20260506133004 54 351 8.7 13.9 0.00 0.00 0.00 81 1010.0
20260506130004 55 353 7.8 15.6 0.00 0.00 0.00 79 1010.0
20260506125003 55 14 7.8 13.9 0.00 0.00 0.00 78 1010.0
20260506124004 55 338 7.0 12.2 0.00 0.00 0.00 78 1010.0
20260506123004 55 356 6.1 13.0 0.00 0.00 0.00 78 1010.0
20260506122004 55 355 5.2 17.4 0.00 0.00 0.00 78 1010.0
20260506121003 55 0 7.8 11.3 0.00 0.00 0.00 78 1010.0
20260506120003 56 349 8.7 13.9 0.00 0.00 0.00 78 1010.0
20260506115004 56 19 6.1 12.2 0.00 0.00 0.00 78 1010.0
20260506114004 56 355 6.1 10.4 0.00 0.00 0.00 78 1010.0
20260506112004 56 7 6.1 12.2 0.00 0.00 0.00 78 1009.2
20260506111003 57 351 5.2 13.0 0.00 0.00 0.00 78 1009.2
20260506110003 57 345 6.1 15.6 0.00 0.00 0.00 77 1009.2
20260506104003 58 2 7.8 13.0 0.00 0.00 0.00 78 1008.5
20260506102003 58 10 7.0 12.2 0.00 0.00 0.00 79 1008.0
20260506101003 58 11 6.1 10.4 0.00 0.00 0.00 78 1008.0
20260506100004 59 345 6.1 10.4 0.00 0.00 0.00 78 1008.0
20260506095004 59 355 6.1 10.4 0.00 0.00 0.00 78 1008.0
20260506094004 59 340 6.1 8.7 0.00 0.00 0.00 78 1008.0
20260506093003 60 352 6.1 10.4 0.00 0.00 0.00 78 1007.8
20260506092004 60 1 7.8 10.4 0.00 0.00 0.00 78 1007.8
20260506091003 60 13 7.0 11.3 0.00 0.00 0.00 78 1007.8
20260506090003 61 7 6.1 10.4 0.00 0.00 0.00 78 1007.8
20260506085003 61 7 6.1 11.3 0.00 0.00 0.00 78 1007.7
20260506084003 61 19 5.2 10.4 0.00 0.00 0.00 78 1007.5
20260506083004 61 20 7.0 12.2 0.00 0.00 0.00 78 1007.2
20260506082004 61 356 5.2 10.4 0.00 0.00 0.00 78 1007.2
20260506081003 61 10 7.0 10.4 0.00 0.00 0.00 78 1007.2
20260506073003 62 15 5.2 7.8 0.00 0.00 0.00 80 1007.3
20260506072003 62 345 6.1 8.7 0.00 0.00 0.00 79 1007.3
20260506071003 62 351 6.1 11.3 0.00 0.00 0.00 79 1007.3
20260506062003 63 9 7.8 13.0 0.00 0.00 0.00 79 1007.1
20260506051003 65 336 7.8 12.2 0.00 0.00 0.00 77 1007.0
20260506044003 66 13 7.8 12.2 0.00 0.00 0.00 75 1007.0
20260506043003 67 15 8.7 13.0 0.00 0.00 0.00 75 1007.0
20260506042004 68 346 7.0 10.4 0.00 0.00 0.00 75 1006.2
20260506041003 68 9 6.1 12.2 0.00 0.00 0.00 75 1006.2
20260506040003 68 352 6.1 10.4 0.00 0.00 0.00 74 1006.2
20260506035004 69 346 7.8 11.3 0.00 0.00 0.00 73 1006.2
20260506034003 69 4 5.2 11.3 0.00 0.00 0.00 72 1005.7
20260506032003 69 7 6.1 10.4 0.00 0.00 0.00 70 1005.7
20260506031004 69 16 6.1 10.4 0.00 0.00 0.00 70 1005.7
20260506030004 70 0 6.1 10.4 0.00 0.00 0.00 70 1005.7
20260506025004 71 341 8.7 12.2 0.00 0.00 0.00 70 1005.0
20260506023004 72 343 8.7 11.3 0.00 0.00 0.00 69 1004.9
20260506022003 72 349 7.8 11.3 0.00 0.00 0.00 69 1004.6
20260506020004 73 356 7.0 12.2 0.00 0.00 0.00 68 1004.0
20260506015003 74 16 8.7 13.9 0.00 0.00 0.00 67 1003.1
20260506014004 75 22 7.8 12.2 0.00 0.00 0.00 67 1003.1
20260506013004 76 7 7.0 10.4 0.00 0.00 0.00 66 1003.1
20260506012003 77 9 6.1 12.2 0.00 0.00 0.00 64 1003.1
20260506011004 78 16 6.1 10.4 0.00 0.00 0.00 64 1002.3
20260506010004 78 345 7.8 12.2 0.00 0.00 0.00 62 1002.3
20260506004003 79 341 6.1 10.4 0.00 0.00 0.00 61 1002.3
20260506003003 80 357 5.2 8.7 0.00 0.00 0.00 60 1002.3
20260506002004 81 347 6.1 10.4 0.00 0.00 0.00 59 1002.3
20260506001004 82 335 8.7 11.3 0.00 0.00 0.00 59 1002.3
20260506000004 83 349 3.5 8.7 0.00 0.00 0.00 59 1002.3
20260505235004 84 342 4.3 10.4 0.00 0.00 0.00 56 1001.5
20260505234003 85 327 0.9 7.8 0.00 0.00 0.00 52 1001.5
20260505233003 86 168 1.7 4.3 0.00 0.00 0.00 66 1001.5
20260505232004 87 165 2.6 6.1 0.00 0.00 0.00 65 1001.5
20260505231004 89 145 2.6 6.1 0.00 0.00 0.00 62 1001.5
20260505230004 89 187 1.7 7.8 0.00 0.00 0.00 58 1001.4
20260505224003 91 166 1.7 4.3 0.00 0.00 0.00 56 1001.4
20260505222004 91 156 1.7 4.3 0.00 0.00 0.00 54 1001.2
20260505221003 91 238 2.6 6.1 0.00 0.00 0.00 53 1001.2
20260505220003 92 218 2.6 6.1 0.00 0.00 0.00 50 1001.2
20260505215004 92 159 0.9 4.3 0.00 0.00 0.00 50 1001.2
20260505214003 91 229 1.7 6.1 0.00 0.00 0.00 50 1001.4
20260505213003 91 220 1.7 5.2 0.00 0.00 0.00 53 1001.4
20260505212004 90 211 2.6 5.2 0.00 0.00 0.00 53 1001.4
20260505211003 90 224 4.3 7.0 0.00 0.00 0.00 52 1002.2
20260505205003 90 208 2.6 5.2 0.00 0.00 0.00 52 1002.2
20260505204003 89 212 0.9 7.0 0.00 0.00 0.00 56 1002.2
20260505203003 89 202 2.6 7.0 0.00 0.00 0.00 55 1002.2
20260505201003 89 190 2.6 7.8 0.00 0.00 0.00 56 1002.3
20260505200004 89 222 5.2 7.8 0.00 0.00 0.00 54 1002.3
20260505195003 89 223 1.7 10.4 0.00 0.00 0.00 58 1002.3
20260505193003 87 154 4.3 8.7 0.00 0.00 0.00 61 1002.5
20260505192004 87 179 5.2 8.7 0.00 0.00 0.00 61 1002.9
20260505191003 87 165 3.5 10.4 0.00 0.00 0.00 62 1002.9
20260505190004 86 183 5.2 13.0 0.00 0.00 0.00 62 1002.9
20260505185004 86 214 4.3 8.7 0.00 0.00 0.00 63 1002.9
20260505184004 85 191 4.3 12.2 0.00 0.00 0.00 63 1002.9
20260505182004 85 234 4.3 10.4 0.00 0.00 0.00 63 1002.9
20260505181004 85 200 2.6 10.4 0.00 0.00 0.00 66 1002.9
20260505180003 84 161 4.3 7.8 0.00 0.00 0.00 66 1003.0
20260505175004 84 211 5.2 10.4 0.00 0.00 0.00 66 1003.0
20260505174003 83 201 4.3 13.9 0.00 0.00 0.00 68 1003.3
20260505172003 82 175 4.3 7.8 0.00 0.00 0.00 68 1003.3
20260505171004 82 213 2.6 10.4 0.00 0.00 0.00 69 1003.3
20260505170003 82 194 2.6 10.4 0.00 0.00 0.00 69 1002.8
20260505165004 82 183 5.2 17.4 0.00 0.00 0.00 67 1002.8
20260505164003 82 215 4.3 10.4 0.00 0.00 0.00 70 1002.8